Temperature
22 21 20 19 19 18 18 18 18 18 18 18 18 18 18 18 18 18 18 18 18 18 18 17 18 18 18 18 18 17 17 18 18 18 18 18 18 18 18 17 17 17 17
22 21 20 19 19 18 18 18 18 18 18 18 19 18 18 18 18 18 18 17 17 17 18 17 17 18 17 17 17 17 17 18 18 18 18 18 18 18 18 18 18 17 17
22 21 20 19 19 18 18 18 18 18 18 18 18 18 18 18 18 18 17 17 17 17 17 17 17 17 17 17 17 17 17 17 18 18 18 18 18 18 18 18 18 18 17
22 21 20 19 19 18 18 18 18 18 18 18 18 18 18 18 18 18 17 17 17 17 17 17 17 17 17 17 17 17 17 17 18 18 18 18 18 18 18 18 18 18 18
23 21 20 19 19 18 18 18 18 17 17 17 18 18 18 18 18 17 17 17 17 17 17 17 17 17 17 17 17 17 17 17 17 18 18 18 18 18 18 18 18 18 18
23 21 20 20 19 18 18 18 17 17 17 17 17 17 17 18 17 17 17 17 17 17 17 16 17 17 17 16 16 16 17 17 17 17 18 18 18 18 19 19 19 18 18
23 21 20 19 19 18 18 18 17 17 17 17 17 17 17 17 18 17 17 17 17 17 17 17 17 16 16 16 16 16 16 17 17 17 17 18 18 18 18 18 19 19 18
23 22 21 20 19 18 18 18 17 17 17 17 17 17 17 17 17 17 17 17 17 17 17 17 17 16 16 16 16 16 16 16 16 17 17 17 17 18 18 18 18 18 18
23 22 21 20 19 18 18 18 17 17 17 17 17 17 17 17 17 17 17 17 17 17 17 17 17 16 16 16 16 16 16 16 16 16 17 17 17 17 17 18 18 18 18
24 22 21 20 19 18 18 17 17 17 17 17 17 17 17 17 17 17 17 17 17 17 17 17 16 16 16 16 16 16 16 16 16 16 16 16 17 17 17 17 17 17 17
24 23 21 20 19 19 18 17 17 17 17 17 17 17 17 17 17 17 17 17 17 17 17 16 16 16 16 16 16 16 16 16 16 16 16 16 16 16 16 16 16 17 17
24 23 22 21 20 19 18 18 17 17 17 17 17 17 17 17 17 17 17 17 17 17 17 16 16 16 16 16 16 16 16 16 16 16 16 16 16 16 16 16 16 16 16
24 23 22 21 20 19 19 18 18 17 17 17 17 17 17 17 17 17 16 16 16 16 16 16 16 16 16 16 16 16 16 16 15 15 15 15 15 15 15 15 15 15 15
24 23 22 21 20 20 19 19 18 18 18 17 17 17 17 16 16 16 16 16 16 16 16 16 16 16 16 16 15 15 15 15 15 15 15 15 15 14 14 14 14 14 14
23 23 22 21 20 20 19 19 19 18 18 17 17 17 17 16 16 16 16 16 16 16 16 16 16 15 15 15 15 15 15 15 14 14 14 14 14 14 14 14 13 13 13
23 22 22 21 20 20 19 19 19 18 18 18 17 17 16 16 16 16 16 16 16 16 15 15 15 15 15 15 15 14 14 14 14 14 13 13 13 13 13 13 13 12 12
23 22 21 20 20 19 19 19 18 18 18 17 17 17 16 16 16 16 16 16 15 15 15 15 14 14 14 14 14 14 14 13 13 13 13 12 12 12 12 12 12 12 11
21 21 20 20 19 19 18 18 18 17 17 17 16 16 16 16 16 15 15 15 15 14 14 14 14 14 13 13 13 13 13 12 12 12 12 11 11 11 11 11 11 10 10
20 20 20 19 19 18 18 18 17 17 17 16 16 16 16 15 15 15 14 14 14 13 13 13 13 13 12 12 12 12 12 11 11 11 11 11 10 10 10 10 10 10 9
19 19 18 18 18 18 17 17 16 16 16 15 15 15 15 14 14 14 13 13 13 13 12 12 12 12 12 11 11 11 11 11 10 10 10 10 9 9 9 9 9 9 9
17 17 17 17 17 17 17 16 16 15 15 14 14 14 14 13 13 13 12 12 12 12 12 11 11 11 11 10 10 10 10 10 10 9 9 8 8 8 8 8 8 7 7
16 16 16 15 15 15 15 15 14 14 14 13 13 13 12 12 12 12 11 11 11 11 11 11 10 10 9 9 9 9 9 9 9 8 8 8 8 7 7 7 6 6 6
14 14 14 14 14 14 14 14 13 13 13 13 12 12 11 11 11 11 11 11 11 11 11 10 10 9 8 8 8 8 8 8 8 8 7 7 7 7 6 6 6 6 5
13 13 13 13 12 12 13 12 12 12 12 12 11 11 11 10 11 10 11 11 11 11 10 10 9 8 8 8 8 8 7 7 7 7 7 7 7 6 6 6 5 5 4
12 12 12 11 11 11 11 11 11 11 11 11 10 10 10 10 10 10 10 10 10 10 10 9 9 8 8 8 7 7 7 7 6 6 6 6 6 6 5 5 4 4 4
11 11 10 10 10 10 10 10 10 10 10 10 10 10 10 10 10 10 10 9 9 9 9 8 8 7 7 7 6 6 6 6 6 5 5 5 5 4 4 4 3 3 3
Wind_Speed
10 11 11 11 11 11 12 12 11 10 9 7 7 6 6 5 5 5 8 6 5 5 1 2 3 1 2 3 3 2 2 2 1 1 2 3 5 5 4 3 4 6 9
10 11 11 12 12 12 12 11 12 12 11 8 6 5 6 5 5 5 5 6 6 6 5 2 3 2 3 2 2 2 1 3 3 1 1 2 2 4 6 5 5 6 6
12 12 12 12 12 12 13 12 12 12 11 10 6 6 5 4 5 6 5 4 6 5 3 4 1 2 2 4 2 1 2 2 1 2 1 1 1 2 2 5 5 5 4
11 11 11 11 11 11 12 11 12 11 11 10 9 9 8 6 7 6 5 5 4 5 5 4 2 1 1 4 3 3 1 1 2 1 2 1 1 0 1 2 4 6 6
11 10 10 9 10 10 11 11 11 11 11 10 10 9 8 6 6 7 7 6 4 4 5 5 4 2 0 3 3 3 1 1 2 2 1 2 2 3 2 2 3 4 5
10 10 9 8 8 10 10 11 12 11 10 10 10 9 8 7 8 9 8 6 5 4 5 6 4 3 2 3 2 1 1 1 3 3 3 1 1 2 2 1 3 4 4
10 10 9 9 9 10 11 12 12 11 11 10 9 8 8 7 8 8 8 6 6 5 6 6 4 3 3 3 2 2 1 2 1 2 4 3 2 2 2 1 1 1 2
11 10 9 9 9 9 10 11 12 11 11 10 9 7 8 6 6 6 6 5 4 6 7 6 5 3 4 4 3 2 4 2 1 3 2 4 3 3 2 2 2 2 2
12 11 10 10 10 10 10 10 11 11 11 11 9 7 7 5 6 7 5 5 4 7 8 7 6 5 4 2 3 2 2 3 3 3 3 3 3 3 3 3 2 1 2
12 12 11 11 11 10 10 11 10 11 11 11 10 10 8 6 5 6 4 3 4 5 8 7 6 5 4 4 3 3 2 2 3 2 2 2 3 3 2 2 2 2 2
13 13 12 12 12 12 11 11 10 11 11 11 9 9 9 8 6 5 4 3 4 6 6 6 5 5 4 4 4 4 3 4 3 3 2 2 3 3 4 3 3 3 2
13 14 13 13 12 12 12 11 11 11 11 10 10 9 9 8 7 7 6 5 4 4 5 4 4 3 3 3 3 4 3 2 2 2 2 2 2 2 3 4 4 3 3
13 14 14 12 12 11 11 11 11 12 12 11 10 9 8 8 7 6 6 5 4 3 3 4 3 2 1 1 1 2 1 0 0 1 0 1 2 2 2 2 4 4 4
11 12 12 11 10 10 10 10 11 11 12 11 10 9 8 8 7 6 6 5 5 4 3 3 3 3 3 3 2 1 1 2 3 4 4 4 4 4 4 3 4 5 5
10 11 12 11 11 10 10 10 10 10 11 11 10 10 9 8 7 7 6 6 6 5 4 4 4 4 4 4 3 2 3 3 4 5 5 6 7 8 6 4 5 5 4
12 11 12 12 11 10 10 9 9 9 9 9 9 9 9 9 8 8 8 7 6 6 7 7 7 8 7 8 9 6 4 5 5 5 4 5 7 7 7 6 5 4 4
11 11 11 10 9 9 9 8 8 9 9 9 8 9 9 8 8 9 9 8 8 8 9 9 10 11 11 12 12 10 6 6 6 6 5 6 9 10 8 6 4 3 2
8 9 9 10 9 10 9 8 9 9 9 9 8 8 9 9 9 9 10 10 9 10 10 11 12 11 12 13 13 10 5 6 6 7 7 7 8 9 9 7 7 6 5
7 7 8 9 9 10 10 10 10 10 10 10 9 10 11 12 12 12 11 10 10 11 11 11 11 11 11 14 14 10 4 5 5 7 8 8 8 9 11 7 7 7 6
8 7 8 10 10 10 11 12 11 11 11 12 12 12 12 13 13 12 12 10 10 10 11 11 10 11 10 13 15 12 6 5 4 6 8 11 9 8 9 6 6 6 7
10 9 10 10 9 10 12 13 13 13 13 14 14 14 13 13 12 11 9 9 10 10 10 10 10 9 9 11 14 14 8 7 5 4 5 5 6 6 6 6 4 5 7
11 12 12 11 10 11 14 15 14 14 14 15 15 14 12 12 12 10 9 8 8 9 8 8 9 8 8 9 9 11 11 9 7 5 5 4 6 8 8 6 6 9 9
11 12 14 14 13 12 14 17 14 15 16 16 15 13 13 11 9 9 8 6 5 5 6 6 6 7 6 6 7 7 8 8 5 5 7 8 10 10 7 4 7 7 5
12 13 16 16 15 14 15 15 14 14 15 15 13 12 12 11 11 9 8 8 6 5 6 6 7 7 8 8 7 6 6 8 7 8 10 11 8 6 6 5 3 3 4
13 13 15 16 15 14 14 14 13 13 14 13 12 11 12 12 12 12 11 11 10 9 9 9 8 7 7 5 6 6 6 6 7 8 7 4 4 4 4 5 5 5 6
14 14 15 16 15 15 14 12 11 12 11 10 9 9 9 9 10 11 12 16 13 15 17 14 11 8 6 2 5 8 9 10 10 7 5 5 6 7 7 7 7 6 7
Wind_Direction
162 158 165 169 173 171 168 171 171 172 171 176 170 165 164 162 147 136 135 149 151 140 168 121 139 238 94 101 120 116 172 224 209 142 156 178 180 177 179 185 169 181 186
162 162 168 174 181 176 172 171 169 172 179 180 170 167 159 164 145 123 136 152 149 157 175 125 165 135 107 106 103 106 339 230 173 163 168 176 188 194 194 178 186 184 181
168 168 175 179 179 178 176 176 172 174 178 172 164 158 150 152 138 135 151 154 154 155 109 127 119 128 168 142 174 155 211 308 190 182 170 146 183 193 188 195 180 165 177
163 170 177 180 180 177 174 170 171 175 175 175 172 167 169 171 158 152 147 152 164 159 144 137 115 96 69 129 194 168 227 273 291 200 166 159 128 128 168 218 182 176 185
163 167 175 176 173 175 173 169 170 175 177 177 174 179 171 166 155 143 144 159 169 170 152 142 138 143 131 115 79 87 14 330 311 314 211 191 190 231 197 199 187 193 189
155 154 161 163 169 172 172 170 170 173 174 177 177 184 172 169 153 150 154 170 164 176 161 149 151 172 170 122 119 105 205 345 351 339 334 324 234 249 241 208 199 203 196
153 153 162 164 169 171 171 167 165 166 171 173 177 180 170 167 159 160 163 177 169 170 161 155 162 181 148 149 155 160 271 199 269 315 317 331 321 324 326 327 282 237 183
155 157 159 157 164 169 166 160 160 165 169 167 169 169 168 175 169 173 167 184 175 156 149 151 168 181 177 184 163 201 202 198 221 259 295 321 317 329 328 322 330 313 264
152 153 155 154 158 165 163 161 161 164 166 167 164 164 173 183 169 171 182 180 166 150 156 163 170 180 190 185 154 236 217 155 209 244 227 257 286 286 306 322 329 304 297
153 152 156 155 154 156 156 160 164 163 163 164 169 171 175 179 172 178 187 179 156 136 153 166 173 179 179 182 199 223 201 200 230 257 289 263 300 319 307 305 309 300 285
158 153 155 154 154 156 159 163 164 165 167 168 171 166 170 173 174 175 175 182 159 154 159 169 176 181 186 184 197 241 201 209 234 253 249 250 284 320 329 323 307 299 302
156 153 153 154 157 159 160 162 164 168 169 168 167 165 165 170 173 178 179 180 164 160 165 168 170 182 183 175 190 234 229 206 220 245 263 266 262 264 307 325 328 329 325
152 151 152 155 158 158 158 159 163 165 168 167 164 164 167 169 173 174 173 166 158 161 153 150 150 148 134 138 176 200 232 204 274 311 325 345 352 342 335 326 329 328 323
149 152 150 151 156 155 155 159 164 164 166 165 164 165 171 171 175 170 163 159 155 152 137 127 118 110 90 69 52 63 64 63 53 47 49 43 40 19 350 349 353 340 331
163 161 154 154 157 156 157 159 160 160 159 158 161 165 169 163 161 157 152 145 141 140 124 112 103 96 80 51 46 53 91 84 68 61 61 61 61 51 34 22 10 359 347
172 168 156 156 156 154 155 154 152 149 147 153 159 158 155 151 149 145 140 132 122 108 100 92 84 71 58 43 49 51 65 77 76 74 74 79 61 47 42 35 28 19 354
162 158 151 149 150 151 150 149 145 142 143 144 142 141 145 144 140 137 128 121 114 104 97 91 85 74 51 43 47 47 58 71 68 63 52 49 52 37 23 11 5 8 347
142 142 147 145 148 148 142 135 134 133 133 130 132 135 134 127 121 116 112 108 103 99 95 91 87 79 55 42 42 37 60 77 75 72 68 71 57 36 17 6 7 355 352
104 123 132 136 138 141 137 131 130 128 125 120 117 118 117 113 110 108 106 103 102 99 97 94 91 82 56 40 36 29 54 76 79 79 66 72 66 36 19 11 1 353 349
82 97 113 112 117 122 123 122 121 116 112 108 102 102 104 107 108 107 106 104 103 101 99 94 90 86 70 48 40 29 40 49 59 91 82 68 62 39 24 10 354 348 345
82 90 97 104 106 113 115 113 109 107 106 103 99 97 98 100 101 100 101 104 104 103 102 102 96 89 83 64 52 43 38 24 23 46 78 70 41 17 359 340 323 324 319
93 95 94 96 98 104 108 105 102 102 102 100 99 97 94 97 100 99 98 103 111 116 117 119 116 103 87 70 61 50 41 21 18 24 32 20 336 324 312 307 302 312 314
97 99 96 91 88 93 102 103 101 102 100 99 98 98 96 92 96 100 100 102 105 116 124 122 114 109 94 71 51 36 25 13 9 3 346 317 299 302 302 274 291 308 320
96 97 97 96 93 91 94 100 103 105 105 104 103 101 96 89 77 74 72 66 54 65 77 76 80 82 67 42 23 17 18 9 12 355 323 305 290 283 304 326 325 327 350
95 95 97 98 97 97 97 100 103 104 104 103 103 100 95 92 80 72 63 69 56 60 67 65 64 66 62 36 20 17 9 359 354 333 315 334 11 13 12 10 15 11 8
100 98 98 98 97 96 94 92 94 99 104 106 110 110 109 108 105 99 82 59 68 71 75 77 84 82 84 57 6 357 340 329 334 333 333 1 16 12 8 3 2 6 8
Height
1480 1482 1485 1487 1489 1492 1495 1499 1503 1508 1512 1516 1520 1524 1528 1532 1535 1536 1538 1541 1543 1544 1546 1548 1549 1551 1552 1553 1554 1555 1556 1558 1559 1560 1562 1563 1563 1564 1565 1566 1567 1568 1569
1479 1481 1484 1486 1488 1491 1494 1497 1500 1505 1509 1514 1519 1523 1527 1531 1533 1535 1537 1540 1542 1544 1546 1547 1548 1550 1551 1552 1553 1554 1556 1558 1559 1560 1561 1562 1564 1563 1564 1565 1566 1567 1568
1476 1479 1482 1484 1486 1489 1491 1494 1498 1503 1508 1512 1517 1521 1525 1529 1531 1534 1536 1539 1541 1543 1545 1546 1548 1549 1550 1551 1553 1554 1555 1557 1559 1560 1561 1561 1561 1562 1564 1564 1565 1566 1567
1474 1477 1480 1482 1485 1487 1490 1493 1496 1501 1505 1510 1514 1518 1522 1526 1529 1532 1534 1537 1539 1542 1543 1545 1546 1548 1550 1551 1552 1553 1555 1556 1558 1559 1560 1561 1561 1562 1563 1564 1565 1565 1566
1471 1475 1478 1481 1483 1486 1488 1491 1495 1499 1504 1508 1512 1517 1521 1525 1528 1531 1533 1536 1538 1540 1542 1544 1545 1547 1549 1550 1551 1552 1554 1556 1557 1558 1559 1560 1560 1561 1562 1563 1564 1564 1565
1469 1473 1477 1479 1482 1484 1486 1489 1493 1497 1502 1506 1510 1515 1519 1523 1526 1529 1531 1534 1536 1539 1541 1543 1544 1546 1548 1549 1550 1551 1553 1554 1555 1556 1558 1559 1560 1560 1561 1561 1562 1562 1563
1467 1471 1475 1478 1480 1482 1485 1487 1491 1495 1500 1504 1508 1513 1516 1520 1524 1527 1530 1533 1536 1538 1540 1542 1543 1545 1547 1548 1549 1550 1552 1553 1554 1555 1556 1557 1559 1559 1560 1560 1560 1561 1561
1465 1470 1473 1476 1478 1481 1484 1486 1490 1494 1498 1502 1506 1511 1515 1519 1523 1526 1529 1532 1535 1537 1539 1541 1542 1544 1546 1548 1548 1550 1551 1552 1553 1554 1555 1556 1557 1558 1559 1559 1560 1560 1560
1464 1468 1472 1475 1478 1480 1483 1486 1489 1493 1497 1500 1505 1509 1513 1517 1521 1525 1528 1531 1534 1536 1538 1539 1541 1543 1545 1547 1548 1549 1550 1551 1552 1553 1554 1555 1556 1557 1557 1558 1558 1559 1558
1462 1467 1471 1474 1477 1480 1483 1486 1489 1492 1495 1499 1503 1507 1511 1515 1520 1523 1527 1530 1533 1535 1536 1539 1541 1542 1544 1545 1547 1548 1549 1550 1551 1552 1552 1553 1554 1554 1555 1556 1556 1556 1557
1460 1465 1469 1473 1477 1480 1483 1485 1488 1491 1495 1499 1503 1507 1510 1514 1518 1522 1525 1528 1531 1533 1535 1537 1539 1541 1542 1544 1545 1547 1548 1548 1549 1550 1550 1551 1552 1552 1553 1553 1554 1554 1554
1458 1462 1468 1472 1476 1479 1482 1484 1487 1490 1494 1498 1502 1505 1509 1513 1517 1521 1524 1527 1530 1532 1534 1536 1538 1539 1541 1542 1544 1545 1546 1546 1547 1548 1548 1549 1549 1549 1550 1550 1550 1551 1551
1457 1461 1466 1471 1475 1479 1482 1484 1487 1490 1494 1497 1501 1505 1509 1512 1515 1519 1522 1525 1528 1530 1532 1534 1535 1537 1539 1540 1541 1543 1543 1544 1545 1546 1546 1546 1546 1546 1547 1547 1547 1547 1547
1458 1461 1465 1470 1474 1478 1481 1484 1488 1490 1494 1497 1500 1504 1508 1511 1514 1518 1521 1524 1526 1528 1530 1532 1533 1535 1536 1537 1539 1540 1541 1542 1542 1543 1543 1543 1543 1543 1543 1543 1543 1543 1543
1458 1461 1464 1469 1473 1477 1480 1484 1487 1490 1493 1496 1499 1503 1507 1510 1513 1516 1519 1521 1524 1526 1528 1530 1531 1533 1534 1535 1536 1538 1539 1539 1540 1540 1540 1540 1540 1540 1540 1540 1540 1539 1539
1456 1460 1463 1467 1472 1475 1479 1483 1486 1489 1493 1496 1499 1503 1506 1509 1511 1514 1517 1520 1522 1525 1526 1528 1530 1531 1532 1534 1534 1536 1537 1537 1538 1538 1538 1538 1538 1537 1537 1537 1537 1536 1536
1453 1457 1461 1465 1470 1473 1477 1481 1485 1488 1492 1495 1498 1501 1504 1507 1510 1513 1515 1518 1521 1523 1525 1527 1528 1530 1531 1533 1534 1534 1535 1536 1536 1536 1536 1536 1535 1535 1535 1534 1533 1533 1532
1452 1456 1460 1464 1469 1473 1477 1481 1485 1488 1491 1494 1497 1500 1503 1505 1508 1511 1514 1517 1519 1522 1524 1526 1527 1529 1531 1532 1533 1533 1534 1534 1534 1535 1535 1534 1534 1533 1532 1531 1530 1530 1529
1452 1455 1459 1463 1467 1472 1476 1480 1484 1487 1490 1493 1495 1498 1501 1504 1507 1510 1513 1516 1518 1521 1523 1525 1527 1529 1531 1532 1533 1533 1534 1534 1534 1533 1533 1532 1532 1531 1530 1529 1527 1526 1525
1453 1456 1458 1462 1466 1471 1475 1479 1483 1486 1489 1492 1495 1498 1501 1504 1507 1510 1513 1517 1519 1522 1524 1526 1528 1530 1531 1532 1533 1533 1533 1533 1533 1533 1532 1531 1530 1529 1528 1526 1525 1523 1522
1454 1457 1459 1463 1467 1471 1475 1479 1483 1486 1490 1493 1496 1499 1502 1505 1508 1511 1515 1518 1521 1523 1525 1527 1529 1531 1532 1532 1533 1533 1533 1533 1533 1533 1531 1530 1529 1528 1526 1524 1523 1521 1519
1457 1459 1461 1465 1469 1472 1475 1479 1483 1487 1491 1494 1498 1501 1504 1508 1511 1514 1518 1521 1523 1525 1527 1529 1530 1531 1532 1533 1533 1533 1533 1532 1532 1531 1530 1529 1528 1526 1524 1522 1521 1519 1517
1459 1461 1464 1467 1471 1475 1477 1480 1485 1489 1493 1496 1500 1504 1507 1511 1515 1517 1520 1523 1526 1527 1529 1531 1532 1533 1533 1533 1533 1533 1532 1531 1530 1529 1528 1527 1526 1524 1523 1521 1519 1517 1515
1462 1464 1467 1470 1475 1478 1480 1483 1488 1491 1495 1499 1503 1507 1511 1514 1517 1520 1523 1525 1527 1529 1530 1531 1533 1533 1533 1533 1532 1531 1531 1529 1528 1527 1526 1525 1524 1523 1521 1520 1517 1516 1514
1466 1468 1471 1475 1479 1482 1485 1488 1492 1495 1499 1503 1507 1511 1514 1517 1519 1522 1525 1527 1529 1530 1531 1532 1533 1533 1533 1532 1532 1530 1529 1528 1527 1526 1525 1524 1523 1522 1520 1519 1517 1514 1512
1470 1473 1476 1479 1483 1487 1490 1494 1497 1500 1503 1507 1511 1514 1518 1521 1523 1525 1527 1529 1530 1532 1532 1533 1533 1533 1533 1532 1531 1530 1529 1528 1527 1526 1525 1524 1522 1521 1519 1517 1515 1513 1510